User: anonymous   Login
Location: Unspecified
(0.0000°N, 0.0000°E)
Time: 06:38:25
(UTC+00:00)
Language:

NTS 1 - Orbit

View from above orbital plane
View from above orbital plane
View from above satellite
View from above satellite

Ground track
Ground track

The orbit data is extracted from the following two-line orbital elements,

1  7369U 74054A   19081.71203153  .00000053  00000-0  00000+0 0  9993
2  7369 125.1294 322.2459 0073444 278.6731 176.5021  3.07214592501476
Epoch (UTC): 22 March 2019 17:05:19
Eccentricity: 0.0073444
inclination: 125.1294°
perigee height: 13463 km
apogee height: 13757 km
right ascension of ascending node: 322.2459°
argument of perigee: 278.6731°
revolutions per day: 3.07214592
mean anomaly at epoch: 176.5021°
orbit number at epoch: 50147

The dashed part of the orbit path shows where the satellite is in the earth's shadow,  

DLR